Location: Unspecified
(0.0000°N, 0.0000°E)
Time: 02:48:39
(UTC+00:00)

Courier 1B Rocket - Pass Details

Date: 13 December 2018
Orbit: 920 x 1202 km, 28.2° (Epoch: 18 March)

Event Time Altitude Azimuth Distance (km) Brightness Sun altitude
Rises 04:25:16 0° 221° (SW) 3,569 7.8 -20.3°
Reaches altitude 10° 04:28:16 10° 210° (SSW) 2,611 7.2 -19.6°
Maximum altitude 04:33:32 28° 152° (SSE) 1,639 6.7 -18.4°
Drops below altitude 10° 04:38:50 10° 94° (E) 2,630 8.4 -17.2°
Sets 04:41:51 0° 83° (E) 3,599 9.0 -16.5°
